カタログに戻る

CZ-3B DEB

運用中GTO
NORAD 42463·DEBRIS·🇨🇳 China

打ち上げ Sep 4, 2010 から Xichang Satellite Launch Center

Loading…

TLE

経年Source: Space-Track

元期: Sep 14, 2026, 12:12 UTC

1 42463U 10042AE  26257.50881311 -.00000003  00000-0  27155-2 0  9991
2 42463  25.4626 345.7203 7462192 158.9375 354.4849  1.93055583  3222

AllMySatでCZ-3B DEBをリアルタイム追跡

Download on the App Store